TimeCEST,TemperatureF,Dew PointF,Humidity,Sea Level PressureIn,VisibilityMPH,Wind Direction,Wind SpeedMPH,Gust SpeedMPH,PrecipitationIn,Events,Conditions,WindDirDegrees,DateUTC
12:20 AM,75.2,59.0,57,30.09,-9999.0,WSW,5.8,-,N/A,,Clear,240,2013-09-09 22:20:00
12:50 AM,73.4,59.0,61,30.09,-9999.0,WSW,5.8,-,N/A,,Clear,240,2013-09-09 22:50:00
1:20 AM,73.4,60.8,65,30.09,-9999.0,Variable,2.3,-,N/A,,Clear,0,2013-09-09 23:20:00
1:50 AM,73.4,60.8,65,30.09,-9999.0,South,2.3,-,N/A,,Clear,190,2013-09-09 23:50:00
2:20 AM,73.4,60.8,65,30.09,-9999.0,SSW,5.8,-,N/A,,Clear,200,2013-09-10 00:20:00
2:50 AM,71.6,60.8,69,30.09,-9999.0,WSW,5.8,-,N/A,,Clear,250,2013-09-10 00:50:00
3:20 AM,69.8,60.8,73,30.09,-9999.0,WSW,6.9,-,N/A,,Clear,250,2013-09-10 01:20:00
3:50 AM,69.8,60.8,73,30.09,-9999.0,West,4.6,-,N/A,,Clear,260,2013-09-10 01:50:00
4:20 AM,71.6,60.8,69,30.09,-9999.0,WNW,4.6,-,N/A,,Clear,290,2013-09-10 02:20:00
4:50 AM,69.8,60.8,73,30.06,-9999.0,West,6.9,-,N/A,,Clear,270,2013-09-10 02:50:00
5:20 AM,71.6,60.8,69,30.06,-9999.0,WNW,6.9,-,N/A,,Clear,300,2013-09-10 03:20:00
5:50 AM,73.4,59.0,61,30.06,-9999.0,WNW,3.5,-,N/A,,Clear,290,2013-09-10 03:50:00
6:20 AM,71.6,60.8,69,30.06,-9999.0,West,3.5,-,N/A,,Clear,270,2013-09-10 04:20:00
6:50 AM,69.8,60.8,73,30.09,-9999.0,West,4.6,-,N/A,,Clear,270,2013-09-10 04:50:00
7:50 AM,71.6,62.6,73,30.06,-9999.0,WSW,4.6,-,N/A,,Clear,250,2013-09-10 05:50:00
8:20 AM,71.6,62.6,73,30.06,-9999.0,WSW,4.6,-,N/A,,Clear,240,2013-09-10 06:20:00
8:50 AM,75.2,62.6,65,30.06,-9999.0,WSW,3.5,-,N/A,,Clear,240,2013-09-10 06:50:00
9:20 AM,77.0,62.6,61,30.09,-9999.0,SW,4.6,-,N/A,,Clear,220,2013-09-10 07:20:00
9:50 AM,78.8,60.8,54,30.09,-9999.0,SW,5.8,-,N/A,,Clear,220,2013-09-10 07:50:00
10:20 AM,80.6,60.8,51,30.09,-9999.0,SW,4.6,-,N/A,,Clear,230,2013-09-10 08:20:00
10:50 AM,82.4,60.8,48,30.09,-9999.0,SW,4.6,-,N/A,,Clear,230,2013-09-10 08:50:00
11:20 AM,82.4,60.8,48,30.09,-9999.0,WSW,4.6,-,N/A,,Clear,240,2013-09-10 09:20:00
11:50 AM,84.2,59.0,42,30.09,-9999.0,West,6.9,-,N/A,,Clear,260,2013-09-10 09:50:00
12:20 PM,86.0,57.2,37,30.09,-9999.0,West,5.8,-,N/A,,Clear,260,2013-09-10 10:20:00
12:50 PM,87.8,59.0,38,30.06,-9999.0,Variable,5.8,-,N/A,,Clear,0,2013-09-10 10:50:00
1:50 PM,84.2,62.6,48,30.06,-9999.0,East,11.5,-,N/A,,Clear,80,2013-09-10 11:50:00
2:20 PM,82.4,64.4,54,30.06,-9999.0,East,10.4,-,N/A,,Clear,80,2013-09-10 12:20:00
2:50 PM,82.4,64.4,54,30.06,-9999.0,ENE,11.5,-,N/A,,Clear,70,2013-09-10 12:50:00
3:20 PM,82.4,62.6,51,30.04,-9999.0,East,11.5,-,N/A,,Clear,80,2013-09-10 13:20:00
3:50 PM,82.4,64.4,54,30.04,-9999.0,East,11.5,-,N/A,,Clear,80,2013-09-10 13:50:00
4:50 PM,82.4,64.4,54,30.04,-9999.0,East,9.2,-,N/A,,Clear,90,2013-09-10 14:50:00
5:20 PM,82.4,64.4,54,30.04,-9999.0,East,8.1,-,N/A,,Clear,90,2013-09-10 15:20:00
5:50 PM,80.6,66.2,61,30.04,-9999.0,East,8.1,-,N/A,,Clear,90,2013-09-10 15:50:00
6:20 PM,78.8,68.0,69,30.04,-9999.0,East,8.1,-,N/A,,Clear,90,2013-09-10 16:20:00
6:50 PM,78.8,69.8,74,30.04,-9999.0,East,6.9,-,N/A,,Clear,90,2013-09-10 16:50:00
7:20 PM,78.8,69.8,74,30.04,-9999.0,East,6.9,-,N/A,,Clear,90,2013-09-10 17:20:00
7:50 PM,77.0,69.8,78,30.04,-9999.0,East,5.8,-,N/A,,Clear,90,2013-09-10 17:50:00
8:20 PM,77.0,71.6,83,30.04,-9999.0,ESE,4.6,-,N/A,,Clear,110,2013-09-10 18:20:00
8:50 PM,77.0,71.6,83,30.04,-9999.0,East,4.6,-,N/A,,Clear,100,2013-09-10 18:50:00
9:20 PM,77.0,71.6,83,30.06,-9999.0,Variable,2.3,-,N/A,,Clear,0,2013-09-10 19:20:00
9:50 PM,77.0,71.6,83,30.06,-9999.0,Variable,2.3,-,N/A,,Clear,0,2013-09-10 19:50:00
10:20 PM,75.2,69.8,83,30.06,-9999.0,West,6.9,-,N/A,,Clear,270,2013-09-10 20:20:00
10:50 PM,75.2,69.8,83,30.06,-9999.0,West,4.6,-,N/A,,Clear,280,2013-09-10 20:50:00
11:20 PM,75.2,69.8,83,30.06,-9999.0,West,3.5,-,N/A,,Clear,270,2013-09-10 21:20:00
11:50 PM,75.2,69.8,83,30.04,-9999.0,West,2.3,-,N/A,,Clear,260,2013-09-10 21:50:00